SL-8 DEB, 39694

Orbit data source: Space-Track

SL-8 DEB, 39694 is space debris in LEO originally from a launch on Tue, 12 Feb 1991 UTC launched from the Plesetsk Missile And Space Complex (PKMTR). Debris objects in space refer to the collection of defunct objects orbiting the Earth. Examples of debris include non-operational satellites, rocket bodies, and fragments generated from explosions, collisions, or faulty payload assembly.

Loading next visibility...
Identifier
39694, 1991-009DH
Orbit
LEO
Country
Flag of CISCIS
Related business
Manufacturer
Unknown
Mission
Spacecraft
Bus & Motor
Unknown
Mass
Unknown
Launch date (UTC)
1991-02-12 (35 years ago)
Launch vehicle
Unknown
Launch site
Plesetsk Missile And Space Complex (PKMTR)
Object type
Payload
Rocket body
Debris
Shape & HBR
Unknown shape, 0.1 m
Radar Cross Section
Small (<0.1 m²)

Expand to show TLE details & history
Last TLE update: 6 days ago

TLE from 6 days ago
0 SL-8 DEB
1 39694U 91009DH  26167.58202495  .00000032  00000-0  44868-3 0  9995
2 39694  74.0815 292.6025 0128703 316.3489  42.7420 12.18884854291650
Epoch: 2026-06-16T13:58Z
TLE epoch observation values (Epoch: 2026-06-16T13:58:06.955Z)
Latitude
-0.00002°
Longitude
178.22152°
Altitude
1,524.967 km
Speed
7.136 km/s
True Right ascension
19h 30m 24s
True Declination
0° 00' 00"
Sunlit
Object was in full shadow at epoch
Visualization orbit readout
Latitude
Unknown
Longitude
Unknown
Altitude
Unknown
Speed
Unknown
Apparent Right ascension
Unknown
Apparent Declination
Unknown
Sunlit
N/A
Visualization observer readout
Local Sidereal Time
03:40:36
Azimuth
Unknown
Elevation
Unknown
Doppler factor
Unknown
Orbital elements
Apogee altitude
1,697.889 km
Perigee altitude
1,492.649 km
Semi-major axis
7,973.406 km
Eccentricity
0.01287
Inclination
74.0815°
RAAN
292.6025°
Arg. of periapsis
316.3489°
True anomaly
43.75487°
Mean anomaly
42.742°
Eccentric anomaly
43.24724°
Mean motion
3.04844 °/min
Orbital period
118.09 mins
BSTAR
0.00044868
Loading maneuver chart data...
Computing Atmospheric mass density...
Loading historical data...
Loading historical data...
Loading historical data...
Loading historical data...
Loading historical data...
Loading historical data...
Loading historical data...

Documentation

Showing up to 5 results
|